Home   Weather   Germany   Korschenbroich   Past weeks
Flag for Germany

Past Weather in Korschenbroich, North Rhine-Westphalia, Germany — Yesterday and Last 2 Weeks

Currently: 61 °F. Clear. (Weather station: Monchengladbach Airport, Germany). See more current weather

Past Weather in Korschenbroich — Graph

°F

Korschenbroich Temperature Yesterday

Maximum temperature yesterday: 64 °F (at 1:50 pm)
Minimum temperature yesterday: 46 °F (at 5:20 am)
Average temperature yesterday: 55 °F

High & Low Weather Summary for the Past Weeks

 TemperatureHumidityPressure
High68 °F (Feb 24, 1:50 pm)100% (Feb 11, 4:20 am)30.72 "Hg (Feb 11, 4:20 am)
Low9 °F (Feb 13, 6:20 am)33% (Feb 14, 3:50 pm)29.71 "Hg (Feb 18, 5:20 pm)
Average39 °F74%30.20 "Hg
* Reported Feb 9 5:20 pm — Feb 24 5:50 pm, Korschenbroich. Weather by CustomWeather, © 2021

Note: Actual official high and low records may vary slightly from our data, if they occured in-between our weather recording intervals... More about our weather records

Korschenbroich Weather History for the Previous 24 Hours

Scroll right to see more
 ConditionsComfort  
Time TempWeatherWind HumidityBarometerVisibility
5:50 pm
Wed, Feb 24
61 °FClear.5 mph68%30.33 "Hg10 mi
5:20 pm64 °FPassing clouds.3 mph60%30.33 "HgN/A
4:50 pm66 °FPassing clouds.3 mph52%30.33 "HgN/A
4:20 pm68 °FPassing clouds.6 mph49%30.33 "HgN/A
3:50 pm68 °FClear.8 mph46%30.36 "Hg10 mi
3:20 pm68 °FPassing clouds.9 mph46%30.36 "HgN/A
2:50 pm68 °FPassing clouds.9 mph49%30.36 "HgN/A
2:20 pm68 °FPassing clouds.10 mph49%30.39 "HgN/A
1:50 pm68 °FPassing clouds.12 mph49%30.39 "HgN/A
1:20 pm66 °FPassing clouds.9 mph52%30.39 "HgN/A
12:50 pm66 °FPassing clouds.12 mph52%30.42 "HgN/A
12:20 pm64 °FPassing clouds.9 mph60%30.42 "HgN/A
11:50 am63 °FPassing clouds.9 mph59%30.42 "HgN/A
11:20 am63 °FClear.9 mph59%30.42 "Hg10 mi
10:50 am61 °FPassing clouds.10 mph63%30.42 "HgN/A
10:20 am59 °FPassing clouds.8 mph68%30.42 "HgN/A
9:50 am57 °FClear.6 mph72%30.45 "Hg10 mi
9:20 am54 °FPassing clouds.5 mph82%30.45 "HgN/A
8:50 am50 °FSunny.3 mph88%30.42 "Hg10 mi
8:20 am46 °FSunny.5 mph93%30.42 "Hg10 mi
7:50 am45 °FSunny.5 mph93%30.42 "Hg10 mi
7:20 am46 °FSunny.5 mph93%30.42 "HgN/A
6:50 am46 °FSunny.5 mph93%30.42 "HgN/A
6:20 am46 °FSunny.3 mph87%30.42 "HgN/A
5:50 am46 °FSunny.3 mph87%30.42 "HgN/A
5:20 am46 °FSunny.2 mph87%30.42 "HgN/A
4:50 am46 °FSunny.3 mph87%30.42 "HgN/A
4:20 am46 °FSunny.3 mph87%30.42 "HgN/A
3:50 am46 °FSunny.3 mph87%30.42 "HgN/A
3:20 am46 °FSunny.3 mph87%30.45 "HgN/A
2:50 am48 °FSunny.3 mph87%30.45 "HgN/A
2:20 am50 °FSunny.5 mph82%30.45 "HgN/A
1:50 am48 °FSunny.2 mph82%30.45 "HgN/A
1:20 am50 °FSunny.3 mph88%30.45 "HgN/A
12:50 am50 °FSunny.3 mph88%30.42 "HgN/A
12:20 am50 °FSunny.3 mph82%30.42 "HgN/A
11:50 pm
Tue, Feb 23
52 °FSunny.6 mph77%30.42 "HgN/A
11:20 pm54 °FSunny.5 mph77%30.42 "HgN/A
10:50 pm55 °FSunny.6 mph72%30.42 "HgN/A
10:20 pm55 °FClear.8 mph72%30.42 "HgN/A
9:50 pm52 °FClear.7 mph82%30.42 "HgN/A
9:20 pm54 °FClear.7 mph77%30.42 "HgN/A
8:50 pm52 °FClear.5 mph82%30.45 "HgN/A
8:20 pm54 °FClear.5 mph77%30.45 "Hg10 mi
7:50 pm57 °FClear.6 mph72%30.45 "Hg10 mi
7:20 pm57 °FClear.5 mph67%30.45 "Hg10 mi
Weather by CustomWeather, © 2021

See weather overview